sat.trackr.live / text

‹ back to catalog

STARLINK-37460

NORAD 68803 · 2026-089B

PAYLOAD ACTIVE UNKNOWN

§ Identity

Operator
Country
US
Launch date
2026-04-23
Launch site
AFWTR
Launch vehicle
Mass (kg)
RCS (m²)

Purposes: comms

External: N2YO · Heavens-Above · Gunter

§ Orbital elements

Epoch: 2026-05-25T02:55:23.005920Z

Period
91.42 min
Inclination
97.2845°
Eccentricity
0.0003369
Mean motion
15.75185411 rev/d
Perigee alt
341.8 km
Apogee alt
346.4 km
Semi-major
6,722.2 km
B*
1.3677e-3
RAAN
351.7507°
Arg perigee
60.3123°
Mean anomaly
299.8477°
Rev number
506

§ Raw data

STARLINK-374601 68803U 26089B   26145.12179405  .00208927  00000+0  13677-2 0  99902 68803  97.2845 351.7507 0003369  60.3123 299.8477 15.75185411  5061

JSON: /api/v1/satellites/68803 · /tle

For live sub-satellite position, see the globe view (requires WebGL).

§ Visibility from observer

Set your observer location to see the next 7 days of passes ≥ 10°. The values pass through the URL so the page stays shareable.

No JS? Fill the form by hand. The geolocation button needs JavaScript.